Simultaneous Nadir Overpasses (SNOs) Predictions

Prediction of SNOs between METOP-B and NOAA-19 Satellite Orbit:

Table of predicted SNOs for the next 14.0 days since TLE Epoch: 12/31/2021
Index Date (METOP-B) Time (METOP-B) Lat,Lon (METOP-B) SZA (METOP-B ) Date (NOAA-19) Time (NOAA-19) Lat,Lon (NOAA-19) SZA (NOAA-19 ) Distance(km) Time Diff (sec)
1 01/08/2022 23:49:04 80.73,-145.91 103.97 01/08/2022 23:47:52 80.74,-145.75 103.97 2.97 72
2 01/09/2022 00:39:45 -80.73, 21.36 76.05 01/09/2022 00:38:53 -80.74, 21.42 76.05 1.80 52
3 01/09/2022 01:30:25 80.74,-171.06 103.98 01/09/2022 01:29:52 80.74,-171.20 103.96 2.51 33
4 01/09/2022 02:21:06 -80.74, -3.79 76.03 01/09/2022 02:20:52 -80.73, -3.67 76.04 2.33 14
5 01/09/2022 03:11:47 80.73, 163.44 103.95 01/09/2022 03:11:52 80.74, 163.36 103.95 1.57 5
6 01/09/2022 04:02:28 -80.73, -29.28 76.07 01/09/2022 04:02:52 -80.73, -29.13 76.05 2.85 24
7 01/09/2022 04:53:09 80.72, 137.94 103.92 01/09/2022 04:53:52 80.73, 137.91 103.94 1.39 43



Historial Predications of SNOs between METOP-B and NOAA-19
